Location: Unspecified
(0.0000°N, 0.0000°E)
Time: 06:56:02
(UTC+00:00)

Alexis - Visible Passes

Search period start: 21 April 2019 00:00
Search period end: 01 May 2019 00:00
Orbit: 739 x 817 km, 69.9° (Epoch: 18 September)

Date Brightness Start Highest point End Pass type
(mag) Time Alt. Az. Time Alt. Az. Time Alt. Az.
21 Apr 6.7 18:30:16 10° S 18:35:41 57° ESE 18:40:58 10° NNE visible
22 Apr 9.5 19:40:35 10° WSW 19:43:56 16° WNW 19:47:15 10° NW visible
23 Apr 8.7 19:05:02 10° SW 19:09:43 29° WNW 19:14:19 10° NNW visible
24 Apr 7.6 18:30:12 10° SSW 18:35:31 51° WNW 18:40:43 10° N visible
25 Apr 8.9 05:22:28 10° NNE 05:26:51 29° ENE 05:31:18 10° SE visible
26 Apr 9.7 04:49:32 10° NE 04:52:38 16° ENE 04:55:45 10° ESE visible
27 Apr 9.7 18:31:42 10° WSW 18:35:20 18° WNW 18:38:56 10° NNW visible
28 Apr 6.6 05:21:30 10° NNW 05:26:39 85° ENE 05:31:55 10° SSE visible
29 Apr 7.6 04:47:31 10° N 04:52:26 46° ENE 04:57:27 10° SSE visible
30 Apr 8.7 04:13:59 10° NNE 04:18:14 26° ENE 04:22:32 10° SE visible
